Date String (YYYY-MM-DD hh:mm:ss) UTC,Instrument flags,absolute air pressure of the measurement (hPa),sample flow rate (lpm),inlet stack bypass flow (lpm),air temperature of the measurement (°C),ambient temperature measured by the external sensor (°C),aerosol sample conditioner tube jacket temperature (°C),OPC LED temperature (°C),internal box temperature (°C),relative humidity of the measurement (%),span deviation,mass concentration of particles derived from Lorenz-Mie calculation of OPC scattering (μg/m³),mass concentration of particles derived from Lorenz-Mie calculation of OPC scattering (μg/m³),mass concentration of particles derived from Lorenz-Mie calculation of OPC scattering (μg/m³)
DateTimeUTC,F1_M11,P_M11,Q1_M11,Q2_M11,T1_M11,T2_M11,T3_M11,T4_M11,T5_M11,U1_M11,ZSPAN_M11,X2_M11,X0_M11,X1_M11
2023-09-08 08:00:00,SystemResetWarning,0836.4,5.01,000.00,028.1,026.7,000.0,036.5,029.6,15.6,0000.0,0003.61,0013.65,0001.87
2023-09-08 08:01:00,SystemResetWarning,0836.4,5.01,000.00,028.1,026.8,000.0,036.5,029.7,15.6,0000.0,0003.55,0012.59,0001.86
2023-09-08 08:02:00,SystemResetWarning,0836.4,5.00,000.00,028.1,026.9,000.0,036.5,029.7,15.6,0000.0,0003.54,0012.42,0001.86
2023-09-08 08:03:00,SystemResetWarning,0836.4,5.00,000.00,028.2,026.9,000.0,036.6,029.7,15.6,0000.0,0003.54,0012.58,0001.87
2023-09-08 08:04:00,SystemResetWarning,0836.4,5.00,000.00,028.2,027.0,000.0,036.6,029.8,15.6,0000.0,0003.48,0011.69,0001.88
2023-09-08 08:05:00,SystemResetWarning,0836.4,5.00,000.00,028.2,027.0,000.0,036.6,029.8,15.6,0000.0,0003.45,0010.49,0001.87
2023-09-08 08:06:00,SystemResetWarning,0836.4,5.00,000.00,028.2,027.1,000.0,036.6,029.8,15.5,0000.0,0003.47,0010.99,0001.87
2023-09-08 08:07:00,SystemResetWarning,0836.4,5.00,000.00,028.3,027.1,000.0,036.6,029.9,15.5,0000.0,0003.46,0010.86,0001.88
2023-09-08 08:08:00,SystemResetWarning,0836.4,5.00,000.00,028.3,027.1,000.0,036.6,029.9,15.5,0000.0,0003.45,0010.77,0001.87
2023-09-08 08:09:00,SystemResetWarning,0836.4,5.00,000.00,028.3,027.2,000.0,036.7,029.9,15.5,0000.0,0003.42,0010.48,0001.87
2023-09-08 08:10:00,SystemResetWarning,0836.5,5.00,000.00,028.3,027.2,000.0,036.7,029.9,15.5,0000.0,0003.44,0010.76,0001.89
2023-09-08 08:11:00,SystemResetWarning,0836.5,5.00,000.00,028.4,027.2,000.0,036.7,029.9,15.4,0000.0,0003.47,0011.71,0001.89
2023-09-08 08:12:00,SystemResetWarning,0836.5,5.00,000.00,028.4,027.3,000.0,036.7,030.0,15.4,0000.0,0003.50,0012.50,0001.91
2023-09-08 08:13:00,SystemResetWarning,0836.5,5.00,000.00,028.4,027.3,000.0,036.7,030.0,15.4,0000.0,0003.50,0013.12,0001.90
2023-09-08 08:14:00,SystemResetWarning,0836.5,5.00,000.00,028.4,027.3,000.0,036.7,030.1,15.3,0000.0,0003.49,0012.86,0001.90
2023-09-08 08:15:00,SystemResetWarning,0836.5,5.00,000.00,028.5,027.3,000.0,036.8,030.1,15.3,0000.0,0003.54,0013.47,0001.91
2023-09-08 08:16:00,SystemResetWarning,0836.5,4.99,000.00,028.5,026.3,000.0,036.7,029.9,15.4,0000.0,0003.59,0013.84,0001.92
2023-09-08 08:17:00,SystemResetWarning,0836.5,5.01,000.00,028.3,024.7,000.0,036.7,029.5,15.5,0000.0,0003.58,0013.62,0001.91
2023-09-08 08:18:00,SystemResetWarning,0836.4,5.01,000.00,028.2,024.3,000.0,036.6,029.3,15.6,0000.0,0003.55,0013.80,0001.90
2023-09-08 08:19:00,SystemResetWarning,0836.4,5.00,000.00,028.1,024.5,000.0,036.6,029.2,15.7,0000.0,0003.52,0013.39,0001.90
2023-09-08 08:20:00,SystemResetWarning,0836.4,4.99,000.00,028.0,024.8,000.0,036.6,029.2,15.8,0000.0,0003.51,0013.50,0001.89
2023-09-08 08:21:00,SystemResetWarning,0836.4,5.00,000.00,028.0,025.2,000.0,036.5,029.3,15.9,0000.0,0003.44,0013.25,0001.86
2023-09-08 08:22:00,SystemResetWarning,0836.4,5.00,000.00,028.0,025.5,000.0,036.5,029.4,15.9,0000.0,0003.38,0012.30,0001.84
2023-09-08 08:23:00,SystemResetWarning,0836.4,5.00,000.00,028.0,025.8,000.0,036.5,029.4,15.9,0000.0,0003.30,0011.54,0001.82
2023-09-08 08:24:00,SystemResetWarning,0836.4,5.00,000.00,028.0,026.0,000.0,036.5,029.4,15.9,0000.0,0003.27,0010.99,0001.82
2023-09-08 08:25:00,SystemResetWarning,0836.4,5.00,000.00,028.0,026.2,000.0,036.5,029.5,15.9,0000.0,0003.23,0010.77,0001.83
2023-09-08 08:26:00,SystemResetWarning,0836.3,5.00,000.00,028.0,026.4,000.0,036.5,029.5,15.9,0000.0,0003.18,0010.31,0001.83
2023-09-08 08:27:00,SystemResetWarning,0836.4,5.01,000.00,028.0,026.5,000.0,036.5,029.5,15.9,0000.0,0003.16,0009.91,0001.81
2023-09-08 08:28:00,SystemResetWarning,0836.3,5.00,000.00,028.0,026.6,000.0,036.5,029.6,15.9,0000.0,0003.15,0009.45,0001.82
2023-09-08 08:29:00,SystemResetWarning,0836.4,4.99,000.00,028.1,026.7,000.0,036.5,029.6,15.9,0000.0,0003.24,0009.37,0001.84
2023-09-08 08:30:00,SystemResetWarning,0836.4,5.00,000.00,028.1,026.7,000.0,036.5,029.6,16.1,0000.0,0003.21,0009.99,0001.82
2023-09-08 08:31:00,SystemResetWarning,0836.4,5.00,000.00,028.1,026.8,000.0,036.5,029.7,16.0,0000.0,0003.16,0010.10,0001.83
2023-09-08 08:32:00,SystemResetWarning,0836.4,5.00,000.00,028.1,026.9,000.0,036.5,029.7,15.9,0000.0,0003.15,0010.86,0001.84
2023-09-08 08:33:00,SystemResetWarning,0836.4,4.99,000.00,028.2,026.9,000.0,036.5,029.7,15.9,0000.0,0003.17,0011.66,0001.85
2023-09-08 08:34:00,SystemResetWarning,0836.3,5.00,000.00,028.2,027.0,000.0,036.6,029.8,15.8,0000.0,0003.21,0011.64,0001.86
2023-09-08 08:35:00,SystemResetWarning,0836.4,5.00,000.00,028.2,027.0,000.0,036.6,029.8,15.9,0000.0,0003.23,0011.58,0001.88
2023-09-08 08:36:00,SystemResetWarning,0836.4,5.00,000.00,028.2,027.0,000.0,036.6,029.8,15.9,0000.0,0003.26,0012.64,0001.86
2023-09-08 08:37:00,SystemResetWarning,0836.4,5.00,000.00,028.2,027.1,000.0,036.6,029.8,15.8,0000.0,0003.24,0012.81,0001.85
2023-09-08 08:38:00,SystemResetWarning,0836.4,5.00,000.00,028.3,027.1,000.0,036.6,029.8,15.9,0000.0,0003.20,0012.93,0001.84
2023-09-08 08:39:00,SystemResetWarning,0836.4,5.00,000.00,028.3,027.1,000.0,036.6,029.9,16.0,0000.0,0003.18,0013.52,0001.84
2023-09-08 08:40:00,SystemResetWarning,0836.4,5.00,000.00,028.3,027.1,000.0,036.6,029.9,16.0,0000.0,0003.12,0013.23,0001.84
2023-09-08 08:41:00,SystemResetWarning,0836.4,5.00,000.00,028.3,027.2,000.0,036.7,029.9,16.0,0000.0,0003.11,0012.89,0001.85
2023-09-08 08:42:00,SystemResetWarning,0836.4,5.00,000.00,028.4,027.2,000.0,036.7,030.0,16.0,0000.0,0003.14,0013.34,0001.84
2023-09-08 08:43:00,SystemResetWarning,0836.4,5.00,000.00,028.4,027.2,000.0,036.7,030.0,15.9,0000.0,0003.16,0013.78,0001.84
2023-09-08 08:44:00,SystemResetWarning,0836.4,5.00,000.00,028.4,027.2,000.0,036.7,030.0,15.9,0000.0,0003.15,0013.32,0001.84
2023-09-08 08:45:00,SystemResetWarning,0836.4,5.01,000.00,028.4,027.3,000.0,036.7,030.0,15.8,0000.0,0003.14,0013.00,0001.85
2023-09-08 08:46:00,SystemResetWarning,0836.4,5.00,000.00,028.4,027.3,000.0,036.8,030.1,15.8,0000.0,0003.14,0012.94,0001.85
2023-09-08 08:47:00,SystemResetWarning,0836.4,5.01,000.00,028.5,027.3,000.0,036.8,030.0,15.7,0000.0,0003.10,0012.26,0001.84
2023-09-08 08:48:00,SystemResetWarning,0836.4,5.00,000.00,028.5,027.3,000.0,036.8,030.0,15.8,0000.0,0003.11,0011.75,0001.85
2023-09-08 08:49:00,SystemResetWarning,0836.4,5.00,000.00,028.5,027.3,000.0,036.8,030.0,15.7,0000.0,0003.14,0011.71,0001.85
2023-09-08 08:50:00,SystemResetWarning,0836.4,5.00,000.00,028.5,027.3,000.0,036.8,030.1,15.7,0000.0,0003.15,0011.60,0001.85
2023-09-08 08:51:00,SystemResetWarning,0836.4,5.00,000.00,028.5,027.3,000.0,036.8,030.1,15.6,0000.0,0003.13,0011.28,0001.83
2023-09-08 08:52:00,SystemResetWarning,0836.4,5.00,000.00,028.5,027.3,000.0,036.8,030.1,15.6,0000.0,0003.11,0010.36,0001.83
2023-09-08 08:53:00,SystemResetWarning,0836.4,5.00,000.00,028.5,027.3,000.0,036.9,030.1,15.6,0000.0,0003.13,0009.85,0001.84
2023-09-08 08:54:00,SystemResetWarning,0836.4,5.00,000.00,028.6,027.3,000.0,036.9,030.1,15.6,0000.0,0003.14,0008.62,0001.86
2023-09-08 08:55:00,SystemResetWarning,0836.4,4.99,000.00,028.6,027.4,000.0,036.9,030.1,15.6,0000.0,0003.14,0008.75,0001.85
2023-09-08 08:56:00,SystemResetWarning,0836.4,4.99,000.00,028.6,026.3,000.0,036.8,029.9,15.6,0000.0,0003.11,0009.71,0001.84
2023-09-08 08:57:00,SystemResetWarning,0836.3,5.00,000.00,028.4,024.6,000.0,036.8,029.4,15.7,0000.0,0003.07,0009.99,0001.83
2023-09-08 08:58:00,SystemResetWarning,0836.3,5.00,000.00,028.3,024.3,000.0,036.7,029.3,15.8,0000.0,0003.12,0009.96,0001.84
2023-09-08 08:59:00,SystemResetWarning,0836.2,5.01,000.00,028.2,024.5,000.0,036.7,029.2,15.9,0000.0,0003.11,0010.98,0001.85
